Ketchikan, AK

4:25 AM AKDT on August 15, 2018 (GMT -0800)
Ketchikan International

Weather History for PAKT - April, 2018

Change the Weather History Date:

Saturday, April 7, 2018

  Actual Average Record
Temperature  
Mean Temperature 48 °F 41 °F  
Max Temperature 61 °F 48 °F 63 °F (2016)
Min Temperature 34 °F 34 °F 25 °F (1965)
Degree Days  
Heating Degree Days 17 24  
Month to date heating degree days 179 171  
Moisture  
Dew Point 33 °F    
Average Humidity 63    
Maximum Humidity 89    
Minimum Humidity 29    
Precipitation  
Precipitation 0.00 in 0.35 in 4.86 in (2014)
Month to date precipitation 1.64 2.42  
Year to date precipitation 28.59 39.24  
Sea Level Pressure  
Sea Level Pressure 29.37 in    
Wind  
Wind Speed 5 mph (WNW)    
Max Wind Speed 17 mph    
Max Gust Speed 22 mph    
Visibility 10 miles    
Events      
T = Trace of Precipitation, MM = Missing Value Source: NWS Daily Summary

Daily Weather History Graph

Daily Weather History Graph

Search for Another Location

Airport or City:

Astronomy

Apr. 07, 2018 Rise Set
Actual Time 6:02 AM AKDT 7:36 PM AKDT
Civil Twilight 5:24 AM AKDT 8:14 PM AKDT
Nautical Twilight 4:37 AM AKDT 9:02 PM AKDT
Astronomical Twilight 3:43 AM AKDT 9:56 PM AKDT
Moon 2:28 AM AKDT (4/7) 10:23 AM AKDT (4/7)
Length of Visible Light 14h 50m
Length of Day
13h 34m
Waning Gibbous, 55% of the Moon is Illuminated
Apr 7
Waning Gibbous
Apr 7
Last Quarter
Apr 15
New
Apr 22
First Quarter
Apr 29
Full

Hourly Weather History & Observations

Time (AKDT) Temp. Windchill Dew Point Humidity Pressure Visibility Wind Dir Wind Speed Gust Speed Precip Events Conditions
12:53 AM 42.1 °F - 37.9 °F 85% 29.57 in 10.0 mi Calm Calm - 0.00 in   Overcast
1:53 AM 42.1 °F - 37.9 °F 85% 29.54 in 10.0 mi Calm Calm - 0.00 in   Overcast
2:53 AM 37.9 °F 34.4 °F 35.1 °F 89% 29.49 in 10.0 mi SW 4.6 mph - N/A   Clear
3:53 AM 36.0 °F - 33.1 °F 89% 29.44 in 10.0 mi Calm Calm - N/A   Clear
4:53 AM 35.1 °F - 32.0 °F 89% 29.40 in 10.0 mi Calm Calm - N/A   Clear
5:53 AM 37.9 °F 35.5 °F 33.1 °F 83% 29.35 in 10.0 mi NW 3.5 mph - N/A   Clear
6:03 AM 37.9 °F 32.1 °F 32.0 °F 79% 29.34 in 10.0 mi WNW 8.1 mph - N/A   Clear
6:53 AM 37.0 °F 34.5 °F 33.1 °F 86% 29.33 in 10.0 mi Variable 3.5 mph - N/A   Clear
7:53 AM 43.0 °F - 34.0 °F 71% 29.32 in 10.0 mi Calm Calm - N/A   Clear
8:53 AM 46.0 °F 41.0 °F 35.1 °F 66% 29.29 in 10.0 mi NW 10.4 mph - N/A   Clear
9:53 AM 50.0 °F - 35.1 °F 57% 29.27 in 10.0 mi NW 8.1 mph - N/A   Clear
10:53 AM 55.0 °F - 33.1 °F 43% 29.26 in 10.0 mi NW 5.8 mph - N/A   Clear
11:53 AM 57.9 °F - 30.0 °F 35% 29.28 in 10.0 mi SE 6.9 mph - N/A   Clear
12:53 PM 59.0 °F - 30.9 °F 35% 29.29 in 10.0 mi SE 11.5 mph 18.4 mph N/A   Clear
1:53 PM 60.8 °F - 30.2 °F 31% 29.30 in 10.0 mi SE 12.7 mph - N/A   Clear
2:53 PM 60.8 °F - 28.4 °F 29% 29.30 in 10.0 mi East 8.1 mph - N/A   Clear
3:53 PM 60.8 °F - 30.2 °F 31% 29.31 in 10.0 mi NE 4.6 mph - N/A   Clear
4:53 PM 57.2 °F - 33.8 °F 41% 29.33 in 10.0 mi NNW 6.9 mph - N/A   Clear
5:53 PM 55.4 °F - 33.8 °F 44% 29.35 in 10.0 mi NNW 4.6 mph - N/A   Clear
7:53 PM 46.4 °F 45.2 °F 33.8 °F 62% 29.39 in 10.0 mi West 3.5 mph - N/A   Clear
8:53 PM 44.6 °F 42.2 °F 33.8 °F 66% 29.42 in 10.0 mi SSW 4.6 mph - N/A   Clear
9:53 PM 43.0 °F 41.3 °F 33.1 °F 68% 29.44 in 10.0 mi SSW 3.5 mph - N/A   Clear
10:53 PM 39.9 °F 37.8 °F 33.1 °F 77% 29.46 in 10.0 mi WNW 3.5 mph - N/A   Clear
11:53 PM 39.0 °F - 34.0 °F 82% 29.48 in 10.0 mi Calm Calm - N/A   Clear